Location: Newark
(51.2625°N, 13.3939°E)
Time: 08:33:37
(UTC+00:00)

OTV 5 (USA 277) - Visible Passes

Search period start: 14 October 2019 00:00
Search period end: 24 October 2019 00:00
Orbit: 310 x 324 km, 54.5° (Epoch: 08 October)

Date Brightness Start Highest point End Pass type
(mag) Time Alt. Az. Time Alt. Az. Time Alt. Az.
14 Oct ? 03:38:55 42° N 03:39:09 43° N 03:41:48 10° E visible
15 Oct ? 03:53:05 41° NW 03:53:48 59° NNE 03:56:31 10° E visible
16 Oct ? 02:36:26 11° ENE 02:36:26 11° ENE 02:36:32 10° ENE visible
16 Oct ? 04:07:19 33° WNW 04:08:24 82° SSW 04:11:08 10° ESE visible
17 Oct ? 02:50:43 15° E 02:50:43 15° E 02:51:17 10° E visible
17 Oct ? 04:21:37 23° W 04:22:54 41° SSW 04:25:30 10° SE visible
18 Oct ? 03:05:07 18° ESE 03:05:07 18° ESE 03:05:58 10° ESE visible
18 Oct ? 04:36:01 15° WSW 04:37:17 20° SW 04:39:26 10° SSE visible
19 Oct ? 03:19:36 18° SE 03:19:36 18° SE 03:20:28 10° SE visible
19 Oct ? 04:51:31 10° SW 04:51:34 10° SW 04:51:38 10° SW visible
20 Oct ? 03:34:13 13° SSE 03:34:13 13° SSE 03:34:40 10° SSE visible
